GLD1793 TFFA-TFFS

Flight info

Callsign GLD1793
Flight time N/A
Altitude 4000
Route DCT PPR DCT
Aircraft BE58/M-SDFGIRY/S

Departure

Time 2026-05-05 18:23
Airport La Désirade Airport (TFFA)

Arrival

Time N/A
Airport Terre-de-Haut Airport (TFFS)
Time Latitude Longitude Altitude Speed Heading
2026-05-05 18:19 16.29677 -61.08698 16 ft 0 kts 291°
2026-05-05 18:21 16.29677 -61.08702 16 ft 0 kts 257°
2026-05-05 18:21 16.29665 -61.08699 13 ft 2 kts 123°
2026-05-05 18:22 16.29655 -61.08684 17 ft 4 kts 128°
2026-05-05 18:22 16.29631 -61.08671 15 ft 4 kts 165°
2026-05-05 18:22 16.29652 -61.08596 15 ft 43 kts 70°
2026-05-05 18:22 16.29844 -61.08059 65 ft 104 kts 72°
2026-05-05 18:23 16.30198 -61.07347 411 ft 114 kts 55°
2026-05-05 18:23 16.30961 -61.07183 858 ft 145 kts 328°
2026-05-05 18:23 16.31165 -61.08288 619 ft 178 kts 262°
2026-05-05 18:23 16.31016 -61.09599 706 ft 185 kts 262°
2026-05-05 18:24 16.30803 -61.10939 901 ft 185 kts 256°
2026-05-05 18:24 16.30518 -61.12202 1260 ft 177 kts 253°
2026-05-05 18:24 16.30236 -61.13437 1653 ft 176 kts 254°
2026-05-05 18:24 16.29932 -61.14737 1693 ft 193 kts 253°
2026-05-05 18:25 16.29584 -61.16130 1690 ft 203 kts 248°
2026-05-05 18:25 16.29116 -61.16956 1690 ft 200 kts 222°
2026-05-05 18:25 16.27604 -61.18059 1688 ft 200 kts 212°
2026-05-05 18:25 16.26578 -61.19046 1680 ft 203 kts 223°
2026-05-05 18:26 16.25633 -61.20144 1687 ft 205 kts 223°
2026-05-05 18:26 16.24661 -61.21261 1682 ft 209 kts 223°
2026-05-05 18:26 16.23686 -61.22353 1682 ft 209 kts 223°
2026-05-05 18:26 16.22693 -61.23463 1678 ft 209 kts 223°
2026-05-05 18:27 16.21706 -61.24569 1682 ft 209 kts 223°
2026-05-05 18:27 16.20713 -61.25682 1681 ft 210 kts 223°
2026-05-05 18:27 16.19715 -61.26801 1680 ft 212 kts 223°
2026-05-05 18:27 16.18713 -61.27924 1685 ft 212 kts 223°
2026-05-05 18:28 16.16716 -61.30163 1682 ft 209 kts 224°
2026-05-05 18:28 16.15726 -61.31271 1678 ft 209 kts 224°
2026-05-05 18:28 16.14741 -61.32374 1679 ft 208 kts 224°
2026-05-05 18:29 16.13755 -61.33478 1675 ft 208 kts 223°
2026-05-05 18:29 16.12911 -61.34675 1678 ft 214 kts 245°
2026-05-05 18:29 16.12804 -61.36215 1667 ft 218 kts 284°
2026-05-05 18:29 16.13571 -61.37547 1668 ft 211 kts 321°
2026-05-05 18:30 16.14675 -61.38522 1672 ft 212 kts 321°
2026-05-05 18:30 16.15697 -61.39638 1680 ft 215 kts 314°
2026-05-05 18:30 16.16666 -61.40834 1679 ft 217 kts 314°
2026-05-05 18:30 16.17643 -61.42027 1680 ft 217 kts 315°
2026-05-05 18:31 16.18632 -61.43215 1682 ft 216 kts 315°
2026-05-05 18:31 16.19613 -61.44392 1683 ft 215 kts 315°
2026-05-05 18:31 16.20596 -61.45574 1681 ft 216 kts 315°
2026-05-05 18:31 16.21566 -61.46738 1682 ft 216 kts 315°
2026-05-05 18:32 16.22545 -61.47921 1681 ft 215 kts 314°
2026-05-05 18:32 16.23524 -61.49100 1681 ft 215 kts 315°
2026-05-05 18:32 16.24511 -61.50288 1678 ft 217 kts 315°
2026-05-05 18:32 16.25462 -61.51434 1673 ft 202 kts 315°
2026-05-05 18:33 16.26406 -61.52550 1438 ft 214 kts 317°
2026-05-05 18:33 16.27511 -61.53646 1181 ft 222 kts 321°
2026-05-05 18:33 16.28551 -61.54768 1021 ft 202 kts 302°
2026-05-05 18:33 16.28933 -61.56023 1043 ft 162 kts 272°
2026-05-05 18:34 16.28543 -61.56955 973 ft 141 kts 207°
2026-05-05 18:34 16.27591 -61.56958 874 ft 144 kts 144°
2026-05-05 18:34 16.27097 -61.56080 454 ft 144 kts 104°
2026-05-05 18:34 16.26889 -61.55026 142 ft 149 kts 107°
2026-05-05 18:35 16.26681 -61.54003 37 ft 137 kts 105°
2026-05-05 18:35 16.26516 -61.53099 32 ft 115 kts 103°
2026-05-05 18:35 16.26381 -61.52386 31 ft 89 kts 103°
2026-05-05 18:35 16.26318 -61.52057 35 ft 5 kts 19°
2026-05-05 18:36 16.26330 -61.52064 35 ft 3 kts 298°
2026-05-05 18:36 16.26342 -61.52135 34 ft 12 kts 275°
2026-05-05 18:36 16.26355 -61.52225 33 ft 13 kts 276°
2026-05-05 18:36 16.26353 -61.52323 32 ft 14 kts 238°
2026-05-05 18:37 16.26273 -61.52364 31 ft 13 kts 192°
2026-05-05 18:37 16.26213 -61.52362 31 ft 6 kts 41°
2026-05-05 18:37 16.26214 -61.52361 31 ft 0 kts 22°
2026-05-05 18:48 16.26221 -61.52360 31 ft 7 kts
2026-05-05 18:48 16.26263 -61.52363 31 ft 5 kts 356°
2026-05-05 18:49 16.26291 -61.52362 31 ft 2 kts
2026-05-05 18:49 16.26376 -61.52386 31 ft 22 kts 295°
2026-05-05 18:49 16.26414 -61.52514 28 ft 11 kts 176°
2026-05-05 18:49 16.26348 -61.52201 34 ft 79 kts 101°
2026-05-05 18:50 16.26236 -61.51535 151 ft 95 kts 102°
2026-05-05 18:50 16.26412 -61.50856 328 ft 107 kts 63°
2026-05-05 18:50 16.26985 -61.50347 542 ft 104 kts 50°
2026-05-05 18:50 16.27710 -61.50276 550 ft 128 kts 331°
2026-05-05 18:51 16.28338 -61.50929 693 ft 131 kts 311°
2026-05-05 18:51 16.28991 -61.51739 735 ft 159 kts 311°
2026-05-05 18:51 16.29732 -61.52644 853 ft 168 kts 312°
2026-05-05 18:51 16.30504 -61.53584 953 ft 173 kts 314°
2026-05-05 18:52 16.31300 -61.54544 1069 ft 177 kts 314°
2026-05-05 18:52 16.32104 -61.55517 1183 ft 177 kts 314°
2026-05-05 18:52 16.32913 -61.56496 1297 ft 180 kts 314°
2026-05-05 18:52 16.33737 -61.57494 1397 ft 183 kts 313°
2026-05-05 18:53 16.34574 -61.58508 1536 ft 187 kts 312°
2026-05-05 18:53 16.35428 -61.59570 1592 ft 195 kts 307°
2026-05-05 18:53 16.36158 -61.60783 1572 ft 200 kts 301°
2026-05-05 18:53 16.36892 -61.62026 1578 ft 203 kts 303°
2026-05-05 18:54 16.37667 -61.63246 1584 ft 202 kts 304°
2026-05-05 18:54 16.38450 -61.64462 1584 ft 203 kts 304°
2026-05-05 18:54 16.39222 -61.65671 1585 ft 202 kts 304°
2026-05-05 18:54 16.39999 -61.66889 1585 ft 202 kts 304°
2026-05-05 18:55 16.40778 -61.68110 1583 ft 204 kts 304°
2026-05-05 18:55 16.41571 -61.69356 1584 ft 206 kts 304°
2026-05-05 18:55 16.42349 -61.70594 1689 ft 201 kts 304°
2026-05-05 18:55 16.43093 -61.71840 1664 ft 207 kts 302°
2026-05-05 18:56 16.43807 -61.73152 1677 ft 205 kts 299°
2026-05-05 18:56 16.44411 -61.74505 1631 ft 209 kts 290°
2026-05-05 18:56 16.44870 -61.75955 1506 ft 211 kts 282°
2026-05-05 18:56 16.45151 -61.77433 1516 ft 205 kts 274°
2026-05-05 18:57 16.45248 -61.78892 1478 ft 206 kts 269°
2026-05-05 18:57 16.45170 -61.80381 1444 ft 205 kts 260°
2026-05-05 18:57 16.44909 -61.81812 1508 ft 196 kts 251°
2026-05-05 18:57 16.44476 -61.83147 1445 ft 199 kts 243°
2026-05-05 18:58 16.43865 -61.84432 1446 ft 190 kts 236°
2026-05-05 18:58 16.43136 -61.85565 1410 ft 194 kts 228°
2026-05-05 18:58 16.42225 -61.86634 1252 ft 195 kts 219°
2026-05-05 18:58 16.41232 -61.87546 1346 ft 187 kts 217°
2026-05-05 18:59 16.40596 -61.88744 1458 ft 195 kts 250°
2026-05-05 18:59 16.40305 -61.90113 1569 ft 193 kts 254°
2026-05-05 18:59 16.40019 -61.91473 1576 ft 196 kts 254°
2026-05-05 18:59 16.39691 -61.92866 1594 ft 195 kts 255°
2026-05-05 19:00 16.39355 -61.94219 1596 ft 191 kts 254°
2026-05-05 19:00 16.39334 -61.95579 1590 ft 190 kts 288°
2026-05-05 19:00 16.40045 -61.96705 1583 ft 187 kts 321°
2026-05-05 19:00 16.41089 -61.97472 1587 ft 186 kts 328°
2026-05-05 19:01 16.42148 -61.98259 1590 ft 187 kts 324°
2026-05-05 19:01 16.43191 -61.99097 1594 ft 187 kts 323°
2026-05-05 19:01 16.44204 -61.99920 1589 ft 187 kts 323°
2026-05-05 19:01 16.45231 -62.00755 1589 ft 188 kts 324°
2026-05-05 19:02 16.46267 -62.01595 1591 ft 189 kts 323°
2026-05-05 19:02 16.47304 -62.02435 1592 ft 189 kts 323°
2026-05-05 19:02 16.48339 -62.03276 1596 ft 189 kts 323°
2026-05-05 19:02 16.49380 -62.04120 1598 ft 189 kts 323°
2026-05-05 19:03 16.50419 -62.04963 1599 ft 190 kts 323°
2026-05-05 19:03 16.51464 -62.05811 1600 ft 191 kts 323°
2026-05-05 19:03 16.52497 -62.06650 1599 ft 189 kts 324°
2026-05-05 19:03 16.53535 -62.07494 1608 ft 189 kts 323°
2026-05-05 19:04 16.54576 -62.08338 1611 ft 190 kts 323°
2026-05-05 19:04 16.55624 -62.09188 1612 ft 192 kts 324°
2026-05-05 19:04 16.56677 -62.10043 1613 ft 192 kts 324°
2026-05-05 19:04 16.57383 -62.10618 1616 ft 191 kts 324°
2026-05-05 19:05 16.58767 -62.11743 1612 ft 190 kts 324°
2026-05-05 19:05 16.59477 -62.12319 1612 ft 191 kts 324°
2026-05-05 19:05 16.60534 -62.13176 1612 ft 193 kts 324°
2026-05-05 19:05 16.61591 -62.14033 1610 ft 192 kts 323°
2026-05-05 19:06 16.62623 -62.14876 1612 ft 189 kts 324°
2026-05-05 19:06 16.63662 -62.15721 1613 ft 188 kts 324°
2026-05-05 19:06 16.64695 -62.16561 1614 ft 190 kts 324°
2026-05-05 19:06 16.65743 -62.17410 1614 ft 191 kts 324°
2026-05-05 19:07 16.66796 -62.18267 1613 ft 191 kts 324°
2026-05-05 19:07 16.67840 -62.19121 1632 ft 192 kts 324°
2026-05-05 19:07 16.68916 -62.19992 1625 ft 198 kts 324°
2026-05-05 19:07 16.70003 -62.20872 1619 ft 196 kts 324°
2026-05-05 19:08 16.71068 -62.21746 1624 ft 194 kts 323°
2026-05-05 19:08 16.72127 -62.22607 1620 ft 196 kts 323°
2026-05-05 19:08 16.73200 -62.23477 1613 ft 192 kts 323°
2026-05-05 19:08 16.74244 -62.24330 1611 ft 189 kts 324°
2026-05-05 19:09 16.75282 -62.25176 1612 ft 190 kts 326°
2026-05-05 19:09 16.76380 -62.25948 1610 ft 190 kts 342°
2026-05-05 19:09 16.77641 -62.25993 1612 ft 180 kts 23°
2026-05-05 19:09 16.78648 -62.25304 1588 ft 172 kts 55°
2026-05-05 19:10 16.79088 -62.24310 1409 ft 138 kts 83°
2026-05-05 19:10 16.79117 -62.23335 1237 ft 133 kts 93°
2026-05-05 19:10 16.79122 -62.22362 1077 ft 134 kts 94°
2026-05-05 19:10 16.79128 -62.21468 916 ft 112 kts 94°
2026-05-05 19:11 16.79133 -62.20716 777 ft 97 kts 98°
2026-05-05 19:11 16.79136 -62.19987 646 ft 107 kts 93°
2026-05-05 19:11 16.79131 -62.19294 551 ft 75 kts 99°
2026-05-05 19:11 16.79156 -62.19056 545 ft 3 kts 304°
2026-05-05 19:12 16.79140 -62.19112 545 ft 7 kts 250°
2026-05-05 19:12 16.79129 -62.19179 547 ft 9 kts 264°
2026-05-05 19:12 16.79129 -62.19235 549 ft 9 kts 272°
2026-05-05 19:12 16.79139 -62.19313 550 ft 12 kts 319°
2026-05-05 19:13 16.79201 -62.19323 550 ft 9 kts 340°
2026-05-05 19:13 16.79234 -62.19371 554 ft 3 kts 239°
2026-05-05 19:13 16.79228 -62.19373 551 ft 0 kts 171°